Погода в Оше

Франция     43°38′41″N   0°35′16″E
темп.,
°C
ветер,
м/с
пор.,
м/с
влажн.,
%
обл.,
%
осадки,
мм/ч
давл.,
гПа
погр.,
м
7 мая, пт
пт723:00+13зюз3584100 0.1 1017182
02:00+12зюз4995100 0.6 1017390
05:00+13зюз61393100 0.8 1017696
08:00+13з61294100 0.9 1018820
11:00+13зсз3694100 0.4 1020419
14:00+16зюз467982 0.5 1020913
17:00+18сз457496 0.5 1019978
20:00+17св2281100 0.6 101898
8 мая, сб
сб823:00+13вюв239255 0.0 101942
02:00+11юв359470 0.0 101882
05:00+11вюв24957 0.0 101675
08:00+12вюв499123 0.0 1016208
11:00+19вюв686793 0.0 1014530
14:00+25вюв68545 0.0 1011721
17:00+25юв685599 0.0 1009848
20:00+20вюв7137694 0.0 1008369
9 мая, вс
вс923:00+15вюв8148418 0.0 1007283
02:00+14вюв81487100 0.0 1006284
05:00+14вюв71486100 0.0 1004309
08:00+14вюв81482100 0.0 1004282
11:00+18вюв6972100 0.0 1004414
14:00+19ююв4771100 0.4 1004454
17:00+20вюв3771100 0.4 1003513
20:00+18юв2477100 0.8 1001100
10 мая, пн
пн1023:00+13сз51097100 3.9 1005370
02:00+13зюз4797100 8.8 1007403
05:00+11зсз249699 0.9 1008276
08:00+11вюв2394100 0.9 1010231
11:00+15юв3379100 0.0 1010580
14:00+16ссв22645 0.0 1008860
17:00+18св226383 0.6 1007980
20:00+16юв237667 1.3 100666
11 мая, вт
вт1123:00+9зсз3698100 3.5 1008162
02:00+9ююв119543 6.0 100811
05:00+9зюз61295100 0.2 1009659
08:00+9з61195100 0.9 1011652
11:00+9з61195100 1.1 1013779
14:00+12з81180100 2.0 10141237
17:00+13зсз8117029 1.3 10151573
20:00+12з711725 1.8 1017752